Wind_Speed
32 33 29 30 28 26 24 20 14 13 14 17 18 19 21 22 20 19 19 19 19 20 24 26 28 30 30 29 28 25 24 23 18 25 26 28 26 30 33 30 27 29 32
28 23 22 23 24 24 21 13 15 17 22 22 21 19 17 13 12 13 16 18 20 21 22 24 27 28 27 27 26 24 24 24 24 25 24 26 26 28 29 31 30 29 30
20 17 18 20 22 17 15 17 16 19 22 20 17 10 8 11 14 16 17 16 18 20 21 23 26 26 24 24 25 24 23 23 23 28 26 25 28 24 26 24 30 31 29
15 14 12 12 10 12 13 13 12 11 10 7 6 8 12 13 14 16 15 17 18 20 22 24 25 25 24 26 26 24 24 25 25 27 27 22 22 23 23 23 22 22 24
8 5 5 5 3 2 2 4 6 7 8 10 10 11 12 15 15 16 16 18 20 22 25 27 24 26 28 31 25 24 25 25 25 25 24 21 17 19 20 19 19 22 24
9 9 7 5 5 6 7 9 9 10 9 10 13 15 16 17 19 18 18 19 20 24 29 30 30 30 32 33 29 30 28 29 28 26 25 19 18 20 22 21 20 17 10
14 11 9 7 7 8 9 10 11 13 15 15 16 18 17 17 17 18 18 19 24 27 30 33 33 28 33 31 31 32 31 27 25 26 22 20 18 22 24 24 21 20 22
11 8 7 8 10 11 12 13 13 13 14 16 17 16 16 14 15 17 19 23 28 33 34 33 31 31 33 34 31 29 32 30 29 30 27 29 25 26 27 26 28 28 26
9 8 9 10 11 13 14 14 14 14 14 15 14 13 14 16 21 25 26 26 27 30 33 34 30 32 33 30 29 29 32 37 31 21 18 20 22 26 26 25 24 21 17
8 8 10 11 11 11 11 11 12 12 12 13 14 17 18 21 23 23 21 26 26 26 32 32 32 26 28 25 26 28 25 28 23 26 25 25 27 26 32 28 28 24 24
7 7 7 6 6 7 8 8 8 12 13 13 15 17 20 22 24 20 23 25 25 27 30 32 30 35 31 24 16 14 16 21 25 24 23 23 22 25 26 32 33 35 36
4 4 6 5 5 5 6 7 10 11 12 14 16 21 24 23 19 22 26 26 25 27 28 25 25 29 16 8 13 14 15 15 18 17 18 19 21 25 32 40 42 44 44
5 7 8 8 8 8 9 10 9 7 9 13 15 22 26 25 21 26 27 29 28 26 20 16 18 20 16 18 16 18 17 17 14 15 17 21 24 32 40 42 41 37 38
8 7 8 10 9 9 10 11 11 11 12 11 14 17 22 23 21 28 30 27 26 20 19 16 16 17 17 21 22 22 20 19 17 19 22 26 28 33 35 39 36 33 31
7 6 6 6 5 5 8 11 10 8 9 11 12 16 20 20 19 23 22 18 17 15 14 18 22 23 24 29 27 24 23 25 27 28 26 28 28 31 34 41 37 31 24
8 8 7 7 9 9 8 8 9 9 5 11 11 15 16 14 18 19 12 13 14 17 21 19 20 22 20 24 23 25 22 27 26 25 28 26 26 29 32 37 38 31 25
11 9 8 9 9 9 10 11 11 10 9 12 14 15 13 14 16 17 12 10 17 19 18 18 20 21 23 22 21 21 22 25 25 22 26 25 26 29 31 31 34 33 35
7 7 6 6 7 7 8 9 9 11 13 16 16 17 16 14 17 17 16 16 20 15 19 19 19 20 21 22 22 24 25 26 24 24 27 27 28 26 27 29 31 32 28
5 5 4 4 4 4 4 5 6 9 11 12 15 19 20 17 16 19 18 17 16 17 18 19 21 20 20 21 20 20 21 23 24 24 25 27 28 27 28 28 29 33 28
4 4 7 8 6 4 3 2 3 6 8 10 12 16 20 20 16 19 22 19 16 17 20 19 18 18 18 19 22 22 22 22 25 26 26 26 29 26 25 27 28 27 27
5 4 5 10 7 4 3 2 1 3 7 9 12 14 15 15 14 17 17 17 18 19 19 18 16 17 19 21 21 21 21 22 23 24 27 28 31 30 27 26 25 26 24
7 4 2 6 5 4 5 4 3 2 6 11 12 12 14 14 14 13 14 15 13 18 19 18 17 18 20 20 21 22 22 23 25 26 27 27 27 24 28 26 26 26 24
7 5 3 4 2 1 2 3 2 1 5 8 10 12 14 15 14 13 13 14 16 16 18 19 18 20 23 22 22 22 23 25 25 24 26 26 25 25 23 24 24 23 24
7 7 7 5 4 5 4 2 2 3 4 7 9 10 12 13 14 15 16 16 18 19 19 20 20 20 22 25 25 25 25 25 24 24 23 23 22 23 22 22 23 23 23
8 9 7 6 4 5 5 3 6 7 6 7 9 10 12 13 15 16 18 19 20 22 23 24 24 23 24 25 27 25 25 24 23 23 24 22 21 22 22 20 23 22 23
8 9 8 7 6 7 5 6 6 5 6 8 8 9 10 11 12 14 16 18 20 22 23 25 27 27 27 28 29 26 26 26 27 24 25 22 21 21 22 22 24 22 21
Wind_Direction
231 233 240 243 243 246 247 246 272 290 305 312 313 306 309 309 315 314 311 308 307 304 303 300 300 301 302 300 297 289 280 280 284 292 289 291 286 290 297 297 293 291 293
232 230 235 234 236 240 244 257 278 298 304 301 304 313 309 321 340 334 322 309 302 304 305 303 302 304 300 298 294 286 286 286 281 291 295 293 287 289 291 297 297 295 293
222 224 226 229 235 246 270 292 290 299 303 300 307 316 329 338 330 325 310 308 309 307 304 305 304 307 300 298 296 291 285 286 286 290 294 290 288 288 288 292 297 296 294
193 210 229 247 261 282 294 302 312 319 326 335 329 325 328 326 320 314 311 310 309 310 312 310 312 312 305 302 296 293 293 291 292 289 289 287 283 288 285 286 287 291 291
185 201 236 258 269 303 349 10 18 11 353 335 329 336 334 328 329 326 323 323 319 316 314 315 312 308 306 313 306 304 301 295 292 286 284 282 277 281 278 287 281 287 289
129 117 111 120 110 78 38 17 2 344 333 337 343 340 338 340 339 334 328 324 321 320 319 317 317 321 322 319 314 313 307 298 290 285 282 272 268 270 276 275 279 282 287
116 108 96 77 44 20 2 349 342 341 340 340 341 339 338 339 334 333 329 326 324 324 324 327 328 324 322 314 312 313 311 306 302 303 303 304 294 284 291 284 280 273 273
93 72 42 19 9 357 353 353 348 347 347 346 346 344 343 348 347 336 328 329 328 326 329 326 318 311 307 308 310 304 306 308 302 302 294 295 298 300 295 286 282 279 279
63 34 13 4 359 355 357 355 357 354 355 353 352 357 354 348 343 338 336 335 331 327 324 318 312 312 308 311 311 306 306 305 315 319 312 308 309 310 305 300 283 274 272
45 19 4 3 4 4 357 4 360 3 357 352 353 354 353 347 343 338 351 340 331 320 320 320 323 317 320 317 311 311 304 308 325 326 320 313 310 322 326 304 279 270 275
35 25 26 24 14 4 10 8 3 357 356 0 359 355 350 350 347 351 343 336 329 321 319 319 323 332 325 318 319 321 313 319 317 317 318 315 309 316 314 311 294 283 278
62 54 43 31 17 18 36 26 14 11 5 353 347 341 342 346 355 343 344 341 342 331 322 325 334 343 328 24 18 348 327 322 324 318 318 315 309 303 312 310 302 294 280
88 83 75 67 61 58 35 21 17 25 11 356 352 342 337 339 344 343 342 347 345 339 339 342 350 358 5 16 19 10 4 353 344 341 328 319 318 314 318 312 312 302 298
116 101 97 78 66 52 37 30 23 15 13 3 351 343 334 335 339 344 343 348 349 356 353 356 357 -0 6 23 17 11 9 4 359 348 333 328 326 327 320 324 320 316 317
116 104 90 75 64 61 50 33 24 20 16 3 350 343 337 332 335 338 335 355 7 5 7 15 17 12 9 17 3 358 5 3 4 356 347 338 330 325 322 331 332 333 326
124 114 92 68 57 58 46 38 28 22 6 351 348 343 344 341 342 341 348 23 25 29 36 21 14 8 4 360 347 349 356 359 357 349 346 337 329 326 323 328 339 349 343
113 104 89 65 56 51 45 39 30 36 32 27 22 21 13 8 10 9 14 36 29 35 31 20 11 1 359 351 348 349 344 346 349 345 342 336 333 333 329 327 340 352 359
124 104 108 82 67 54 49 48 35 30 26 23 32 28 25 27 25 23 28 34 33 17 34 20 7 357 355 348 349 349 348 349 348 345 343 341 341 335 331 330 334 339 350
146 177 160 133 100 93 90 64 37 32 28 20 19 26 22 22 29 29 30 30 26 17 16 8 2 356 352 349 352 351 350 348 345 346 344 342 342 341 335 335 335 335 345
191 195 194 187 175 160 143 101 28 25 20 20 21 15 7 9 13 18 22 17 19 16 8 3 357 356 356 354 358 355 351 351 350 351 347 346 345 344 335 335 338 339 346
187 176 183 192 200 206 213 220 261 2 8 6 5 4 2 6 10 19 16 23 19 10 5 4 360 1 1 0 358 356 353 350 350 346 346 347 350 343 342 338 340 347 348
156 133 170 187 205 237 250 240 263 326 0 2 9 14 8 14 15 15 16 15 10 12 18 18 15 11 6 4 359 356 354 352 349 348 348 348 350 349 344 346 349 352 353
143 134 139 136 110 357 242 233 287 358 21 33 26 19 25 30 28 26 24 24 26 21 17 17 15 13 12 11 9 3 357 352 349 350 346 348 351 349 349 346 350 355 357
153 150 149 130 102 102 111 111 81 104 78 35 31 40 42 45 47 44 39 35 32 28 25 22 19 16 13 15 13 11 7 5 4 0 0 358 350 350 354 356 358 360 3
161 165 164 148 136 140 134 123 114 109 74 50 62 67 63 58 53 47 42 38 35 33 30 27 21 19 14 14 14 15 15 17 17 12 12 7 0 1 2 0 2 7 10
178 173 167 163 158 157 165 157 136 109 87 91 81 78 69 60 51 44 37 34 32 32 31 30 28 26 21 19 15 17 20 21 21 22 22 13 9 9 10 8 5 11 11
Height
800 803 807 811 815 817 818 819 819 817 819 820 819 818 816 815 811 810 811 812 811 809 808 807 806 804 802 800 798 794 790 786 777 771 770 766 763 761 759 756 755 751 748
798 802 806 810 812 813 814 818 818 817 816 816 816 814 812 810 808 807 808 809 807 804 803 802 799 798 796 793 789 785 781 778 773 763 764 760 757 754 752 749 747 744 740
799 803 805 808 809 812 814 814 815 813 812 813 813 811 810 807 805 805 806 804 802 800 798 796 794 792 789 785 781 777 774 770 766 758 753 754 751 749 745 743 739 735 733
799 803 805 807 809 810 811 810 810 810 811 810 810 809 806 805 805 805 804 800 797 795 793 791 788 785 781 777 774 770 766 761 758 752 747 747 745 743 740 736 732 730 726
800 803 805 807 808 809 810 810 809 808 808 810 810 807 805 804 803 801 797 794 792 790 788 785 782 779 774 770 766 761 759 754 751 746 741 741 739 737 733 729 727 724 720
801 804 806 809 810 809 808 807 808 810 811 809 805 803 802 801 798 795 793 792 790 787 782 778 775 769 763 759 757 755 754 749 744 740 735 732 729 730 726 724 721 719 714
803 807 808 809 808 807 807 807 808 807 805 804 802 801 799 798 796 794 792 790 787 783 777 771 764 762 759 755 752 749 746 744 742 737 730 724 723 722 721 718 715 713 709
804 806 806 807 807 807 807 807 806 805 804 802 801 800 799 798 797 795 791 785 780 775 771 768 765 761 756 754 750 745 742 739 736 733 729 724 722 719 717 713 709 703 700
805 807 808 808 807 807 806 806 806 804 803 803 802 802 800 798 794 789 784 781 778 774 769 765 762 757 751 749 747 742 737 730 730 727 724 721 719 715 711 708 701 697 688
808 809 809 808 807 808 809 808 808 807 807 805 803 800 798 795 792 788 786 783 779 774 767 760 756 754 750 747 744 741 736 730 726 721 718 715 712 707 703 699 692 686 679
810 810 811 812 812 811 810 810 809 807 805 803 802 801 798 796 792 790 788 784 777 770 764 757 753 749 745 741 738 736 734 729 724 720 715 711 706 701 697 691 684 676 665
814 815 814 813 813 812 811 811 809 807 807 805 803 801 799 796 793 790 785 780 774 768 761 757 754 749 741 739 736 735 732 728 724 719 714 708 702 696 688 677 667 658 649
815 814 815 815 814 813 813 812 811 809 808 807 804 801 797 794 791 787 782 776 771 766 762 759 755 751 744 738 733 734 731 727 723 718 713 706 700 691 679 666 653 640 629
814 815 816 815 815 815 814 814 813 812 810 809 805 802 798 793 790 785 780 776 772 767 764 759 756 752 746 740 735 734 731 727 723 717 710 703 695 684 674 661 646 634 622
816 816 816 816 816 816 815 814 814 813 812 810 808 805 801 795 793 789 785 780 776 771 766 761 756 751 745 738 736 735 730 725 719 715 708 701 693 684 673 659 643 631 620
816 817 817 817 817 816 815 815 814 814 813 812 810 807 804 801 796 791 786 782 777 772 768 764 760 756 751 746 742 735 730 725 721 716 709 703 695 685 675 659 643 633 621
816 816 817 817 817 817 817 815 816 817 815 814 811 808 805 802 797 792 787 782 778 775 772 769 765 760 754 750 745 740 734 728 723 718 710 703 696 687 677 664 649 637 625
816 816 817 818 819 819 819 818 818 817 815 815 813 810 806 801 797 793 788 783 779 776 774 770 767 763 758 753 747 740 734 728 724 719 711 704 697 691 680 669 658 647 638
814 816 817 818 820 820 820 819 820 819 817 815 813 810 806 802 798 795 790 786 781 779 776 773 769 765 760 754 749 743 737 731 726 720 713 706 699 692 683 675 665 654 645
813 814 814 816 818 818 819 819 820 820 817 815 812 810 806 803 799 795 791 788 784 782 779 775 770 766 762 756 749 744 738 732 726 720 715 709 701 695 688 679 670 660 651
811 811 811 813 816 817 817 818 818 818 817 815 812 810 807 803 800 798 795 791 788 785 781 776 772 767 761 756 751 746 741 736 729 723 717 710 703 695 689 683 675 667 659
809 809 811 812 813 814 816 816 817 816 815 813 811 809 807 804 802 799 796 793 791 787 783 778 773 768 763 759 754 749 743 738 731 725 719 712 705 700 693 686 678 672 665
810 810 810 811 811 812 814 816 815 814 815 813 811 809 808 805 803 801 798 795 792 788 784 780 775 771 766 761 757 751 746 740 735 729 722 714 708 703 697 691 684 678 672
810 810 811 812 812 812 814 816 814 812 813 813 811 810 809 808 806 803 801 798 794 790 786 782 777 773 769 764 759 754 749 743 736 730 724 718 713 707 701 696 690 684 678
810 811 811 812 812 813 815 815 813 813 813 813 812 811 810 810 808 806 803 800 797 793 788 784 779 774 770 766 762 757 751 744 738 732 726 721 717 712 705 700 695 689 684
808 808 809 811 812 812 814 816 814 813 812 812 813 812 812 811 810 808 805 802 799 796 791 787 783 778 774 768 763 757 751 745 739 734 729 725 720 715 710 704 699 694 690